San Antonio, TX

12:03 PM CST on February 09, 2016 (GMT -0600)
San Antonio International

Weather History for KSAT - October, 2013

Change the Weather History Date:

Wednesday, October 23, 2013

  Actual Average Record
Temperature  
Mean Temperature 66 °F 69 °F  
Max Temperature 82 °F 80 °F 93 °F (1988)
Min Temperature 49 °F 58 °F 36 °F (1996)
Degree Days  
Heating Degree Days 0 1  
Month to date heating degree days 11 12  
Since 1 July heating degree days 11 14  
Cooling Degree Days 1 6  
Month to date cooling degree days 208 181  
Year to date cooling degree days 3359 3015  
Growing Degree Days 15 (Base 50)    
Moisture  
Dew Point 43 °F    
Average Humidity 49    
Maximum Humidity 74    
Minimum Humidity 23    
Precipitation  
Precipitation 0.00 in 0.14 in 4.62 in (1914)
Month to date precipitation 1.97 3.18  
Year to date precipitation 29.11 27.15  
Snow  
Snow 0.00 in - - ()
Month to date snowfall 0.0  
Since 1 July snowfall 0.0  
Since 1 September snowfall 0.0  
Snow Depth 0.00 in    
Sea Level Pressure  
Sea Level Pressure 30.11 in    
Wind  
Wind Speed 5 mph (West)    
Max Wind Speed 13 mph    
Max Gust Speed 16 mph    
Visibility 10 miles    
Events      
T = Trace of Precipitation, MM = Missing Value Source: NWS Daily Summary

Daily Weather History Graph

Daily Weather History Graph

Search for Another Location

Airport or City:

Trip Planner

Search our weather history database for the weather conditions in past years. The results will help you decide how hot, cold, wet, or windy it might be!

Date:

Astronomy

Oct. 23, 2013 Rise Set
Actual Time 7:40 AM CDT 6:55 PM CDT
Civil Twilight 7:16 AM CDT 7:19 PM CDT
Nautical Twilight 6:48 AM CDT 7:47 PM CDT
Astronomical Twilight 6:21 AM CDT 8:14 PM CDT
Moon 10:38 PM CDT (10/23) 11:47 AM CDT (10/23)
Length of Visible Light 12h 02m
Length of Day
11h 14m
Waning Gibbous, 79% of the Moon is Illuminated
Oct 23
Waning Gibbous
Oct 26
Last Quarter
Nov 3
New
Nov 9
First Quarter
Nov 17
Full

Hourly Weather History & Observations

Time (CDT) Temp. Dew Point Humidity Pressure Visibility Wind Dir Wind Speed Gust Speed Precip Events Conditions
12:51 AM 54.0 °F 44.1 °F 69% 30.11 in 10.0 mi WNW 4.6 mph - N/A   Clear
1:51 AM 53.1 °F 43.0 °F 69% 30.12 in 10.0 mi NW 5.8 mph - N/A   Clear
2:51 AM 52.0 °F 43.0 °F 71% 30.11 in 10.0 mi WNW 5.8 mph - N/A   Clear
3:51 AM 51.1 °F 42.1 °F 71% 30.09 in 10.0 mi WNW 5.8 mph - N/A   Clear
4:51 AM 50.0 °F 42.1 °F 74% 30.08 in 10.0 mi NW 6.9 mph - N/A   Clear
5:51 AM 51.1 °F 42.1 °F 71% 30.09 in 10.0 mi WNW 3.5 mph - N/A   Clear
6:51 AM 50.0 °F 42.1 °F 74% 30.11 in 10.0 mi WNW 4.6 mph - N/A   Clear
7:51 AM 51.1 °F 41.0 °F 68% 30.12 in 10.0 mi WNW 3.5 mph - N/A   Clear
8:51 AM 57.0 °F 44.1 °F 62% 30.14 in 10.0 mi WNW 3.5 mph - N/A   Clear
9:51 AM 66.0 °F 45.0 °F 47% 30.16 in 10.0 mi Calm Calm - N/A   Clear
10:51 AM 73.0 °F 42.1 °F 33% 30.17 in 10.0 mi Calm Calm - N/A   Clear
11:51 AM 77.0 °F 41.0 °F 28% 30.16 in 10.0 mi South 5.8 mph - N/A   Clear
12:51 PM 79.0 °F 39.9 °F 25% 30.14 in 10.0 mi SSW 8.1 mph - N/A   Clear
1:51 PM 80.1 °F 39.9 °F 24% 30.11 in 10.0 mi SSE 5.8 mph - N/A   Clear
2:51 PM 81.0 °F 39.9 °F 23% 30.09 in 10.0 mi SW 8.1 mph - N/A   Clear
3:51 PM 81.0 °F 39.9 °F 23% 30.08 in 10.0 mi SW 10.4 mph 16.1 mph N/A   Clear
4:51 PM 81.0 °F 39.0 °F 22% 30.07 in 10.0 mi SSW 5.8 mph - N/A   Clear
5:51 PM 79.0 °F 41.0 °F 26% 30.07 in 10.0 mi South 3.5 mph - N/A   Clear
6:51 PM 75.9 °F 39.9 °F 27% 30.08 in 10.0 mi South 6.9 mph - N/A   Clear
7:51 PM 73.0 °F 42.1 °F 33% 30.09 in 10.0 mi South 5.8 mph - N/A   Clear
8:51 PM 69.1 °F 43.0 °F 39% 30.09 in 10.0 mi Calm Calm - N/A   Clear
9:51 PM 63.0 °F 48.9 °F 60% 30.10 in 10.0 mi NW 3.5 mph - N/A   Clear
10:51 PM 60.1 °F 48.0 °F 64% 30.11 in 10.0 mi NW 4.6 mph - N/A   Clear
11:51 PM 57.0 °F 46.9 °F 69% 30.11 in 10.0 mi WNW 6.9 mph - N/A   Clear